Weather Roundup
Issued by NWS Corpus Christi, TX

Home | Current Version | Previous Version | Text Only | Print | Product List | Glossary Off
Versions: 1 2 3 4 5 6 7 8 9 10 11 12 13 14 15 16 17 18 19 20 21 22 23 24 25 26 27 28 29 30 31 32 33 34 35 36 37 38 39 40 41 42 43 44 45 46 47 48 49 50

000
ASUS44 KCRP 201410
HRRCRP

SOUTH TEXAS REGIONAL WEATHER ROUNDUP
NATIONAL WEATHER SERVICE CORPUS CHRISTI TX
900 AM CDT WED AUG 20 2014


TXZ229>244-201500-
...CORPUS CHRISTI AREA OBSERVATIONS...

CITY           SKY/WX    TMP DP  RH WIND       PRES   REMARKS
CORPUS CHRISTI MOSUNNY   84  78  82 SE12      29.94R HX  95
NAS CORPUS CHR MOSUNNY   86  80  82 SE13      29.94R HX 101
ROCKPORT       MOSUNNY   87  79  76 S8        29.94R HX 101
KINGSVILLE NAS MOSUNNY   87  79  76 S14       29.93R HX 101
ALICE          MOSUNNY   83  78  85 SE8       29.93R HX  93
FALFURRIAS     MOSUNNY   88  76  68 SE9G16    29.92R HX  99
$$

...VICTORIA AREA OBSERVATIONS...

CITY           SKY/WX    TMP DP  RH WIND       PRES   REMARKS
VICTORIA       SUNNY     87  79  76 S10       29.96R HX 101
BEEVILLE       FAIR      84  77  79 SE10G16   29.95R HX  94
PLEASANTON     PTSUNNY   81  74  80 SE8       29.96R
SAN ANTONIO    CLOUDY    82  74  76 SE12      29.98R
$$

...LAREDO AREA OBSERVATIONS...

CITY           SKY/WX    TMP DP  RH WIND       PRES   REMARKS
LAREDO         SUNNY     83  73  71 SE14      29.95R
COTULLA        PTSUNNY   81  73  76 SE13G23   29.94R
DEL RIO        CLOUDY    79  70  74 E13       29.93R
MCALLEN        MOSUNNY   84  77  79 SE15G21   29.92R HX  94
HEBBRONVILLE   CLOUDY    79  74  85 SE9       29.95R
$$

...OTHER TEXAS OBSERVATIONS...

CITY           SKY/WX    TMP DP  RH WIND       PRES   REMARKS
BROWNSVILLE    SUNNY     86  78  77 SE15G21   29.93R HX  98
HOUSTON        MOSUNNY   84  78  82 SE5       29.99R HX  95
COL. STATION   PTSUNNY   80  76  87 S6        29.99R
AUSTIN         PTSUNNY   80  75  84 S13       29.98R
WACO           PTSUNNY   80  73  79 S14       29.98R
FORT WORTH     PTSUNNY   81  71  71 S15       29.95S
WICHITA FALLS  MOSUNNY   82  65  56 S17       29.91R
LUBBOCK        MOSUNNY   74  63  68 S15       29.96R
EL PASO        MOSUNNY   71  59  65 SW15      30.01R
$$

...MARINE OBSERVATIONS...

STATION/POSITION TIME  SKY/WX   TEMP    WIND        PRES    VSBY  WAVE   SWELL
                                AIR SEA DIR/SP/G                  HT/PER HT/PER
                 (UTC)          (F)     (DEG/KT/KT) (MB)    (MI)  (FT/S) (FT/S)
PORT ARANSAS     1400            83 83  150/  8/  9 1014.6R
BUOY 90 E PORT A 1400            85 85  160/ 12/ 14 1015.1R         3/ 5   2/11
BUOY 45 SE BAFFI 1400            85 86  160/ 16/ 17 1013.2R         3/ 5
BUOY 200 E PT IS 1400            86 86  150/ 14/ 16 1015.5R         4/ 5   2/11
BUOY 15 E GALVES NOT AVBL
$$



USA.gov is the U.S. government's official web portal to all federal, state and local government web resources and services.